[Date Prev][Date Next][Thread Prev][Thread Next] - [Date Index][Thread Index][Author Index]

2 Line ISS Keps 8-13



ISS
1 25544U 98067A   02225.45018519  .00027253  00000-0  36566-3 0   409
2 25544  51.6392 125.5548 0017647 135.0370 211.7194 15.57559663212958


----
Via the sarex mailing list at AMSAT.ORG courtesy of AMSAT-NA.
To unsubscribe, send "unsubscribe sarex" to Majordomo@amsat.org



AMSAT Top AMSAT Home